Home   Weather   Leeds   Past weeks

Flag for United Kingdom Past Weather in Leeds, England, United Kingdom — Yesterday and Last 2 Weeks

43 °F

Passing clouds.

Feels Like: 37 °F
Forecast: 41 / 53 °F
Wind: 10 mph from Northeast

Location: Leeds And Bradford

Current Time: Oct 23, 2016 at 11:17:15 PM

Latest Report: Oct 23, 2016 at 10:20 PM

Visibility: N/A

Pressure: 29.95 "Hg

Humidity: 93%

Dew Point: 41 °F

Location of LeedsLocation

Past Weather in Leeds — Graph


Leeds Temperature Yesterday

Maximum temperature yesterday: 50 °F (at 11:20 AM)
Minimum temperature yesterday: 43 °F (at 8:50 PM)
Average temperature yesterday: 46 °F

High & Low Weather Summary for the Past Weeks

High57 °F (Oct 16, 3:20 PM)100% (Oct 8, 11:50 PM)30.45 "Hg (Oct 8, 11:50 PM)
Low43 °F (Oct 10, 6:20 AM)67% (Oct 16, 4:20 PM)29.65 "Hg (Oct 15, 3:50 AM)
Average48 °F92%30.06 "Hg
* Reported Oct 8 10:20 PM — Oct 23 10:20 PM, Leeds, Weather by CustomWeather, © 2016

Note: Actual official high and low records may vary slightly from our data, if they occured in-between our weather recording intervals... More about our weather records


Leeds Weather History for the Previous 24 Hours

Scroll right to see more
Time TempWeatherWind HumidityBarometerVisibility
10:20 PM
Sun, Oct 23
43 °FPassing clouds.10 mph93%29.95 "HgN/A
9:50 PM43 °FPassing clouds.9 mph93%29.95 "HgN/A
9:20 PM45 °FPassing clouds.10 mph93%29.95 "HgN/A
8:50 PM45 °FPartly cloudy.7 mph93%29.95 "HgN/A
8:20 PM45 °FPartly cloudy.8 mph100%29.95 "HgN/A
7:50 PM45 °FPartly cloudy.9 mph100%29.95 "HgN/A
7:20 PM45 °FPartly cloudy.8 mph100%29.95 "HgN/A
6:50 PM46 °FPassing clouds.9 mph93%29.95 "HgN/A
6:20 PM46 °FPassing clouds.7 mph93%29.92 "HgN/A
5:50 PM46 °FPassing clouds.8 mph87%29.92 "HgN/A
5:20 PM46 °FScattered clouds.8 mph87%29.92 "HgN/A
4:50 PM48 °FScattered clouds.8 mph87%29.92 "HgN/A
4:20 PM48 °FScattered clouds.8 mph87%29.92 "HgN/A
3:50 PM48 °FScattered clouds.8 mph82%29.92 "HgN/A
3:20 PM48 °FScattered clouds.10 mph82%29.92 "HgN/A
2:50 PM48 °FScattered clouds.8 mph87%29.92 "HgN/A
2:20 PM46 °FScattered showers. Scattered clouds.6 mph93%29.95 "HgN/A
1:50 PM48 °FScattered clouds.7 mph82%29.95 "HgN/A
1:20 PM48 °FScattered clouds.8 mph76%29.95 "HgN/A
12:50 PM48 °FScattered clouds.12 mph82%29.98 "HgN/A
12:20 PM48 °FPassing clouds.10 mph76%29.98 "HgN/A
11:50 AM46 °FPassing clouds.9 mph82%29.98 "HgN/A
11:20 AM46 °FPassing clouds.12 mph82%29.98 "HgN/A
10:50 AM46 °FPassing clouds.13 mph82%29.98 "HgN/A
10:20 AM46 °FPassing clouds.9 mph82%29.98 "HgN/A
9:50 AM45 °FPassing clouds.9 mph87%30.01 "HgN/A
9:20 AM43 °FPassing clouds.9 mph93%30.01 "HgN/A
8:50 AM43 °FPassing clouds.9 mph93%30.01 "HgN/A
8:20 AM43 °FPassing clouds.9 mph93%29.98 "HgN/A
7:50 AM43 °FPassing clouds.10 mph93%29.98 "HgN/A
7:20 AM43 °FSprinkles. Passing clouds.7 mph93%29.98 "HgN/A
6:50 AM45 °FSprinkles. Passing clouds.9 mph93%29.98 "HgN/A
6:20 AM45 °FSprinkles. Passing clouds.9 mph93%29.98 "HgN/A
5:50 AM45 °FPassing clouds.10 mph100%29.98 "HgN/A
5:20 AM45 °FSprinkles. Passing clouds.8 mph100%29.98 "Hg5 mi
4:50 AM45 °FPassing clouds.13 mph100%29.98 "HgN/A
4:20 AM45 °FPassing clouds.8 mph100%29.98 "HgN/A
3:50 AM45 °FPassing clouds.8 mph100%29.98 "HgN/A
3:20 AM45 °FPassing clouds.8 mph100%29.98 "HgN/A
2:50 AM45 °FPassing clouds.8 mph100%29.98 "HgN/A
2:20 AM45 °FPassing clouds.7 mph100%30.01 "HgN/A
1:50 AM45 °FPassing clouds.8 mph100%30.01 "HgN/A
1:20 AM45 °FPassing clouds.8 mph100%30.01 "HgN/A
12:50 AM45 °FPassing clouds.6 mph100%30.01 "HgN/A
12:20 AM45 °FPartly cloudy.7 mph100%30.01 "HgN/A
11:50 PM
Sat, Oct 22
45 °FPartly cloudy.8 mph100%30.01 "HgN/A
11:20 PM45 °FPartly cloudy.7 mph100%30.01 "HgN/A
Weather by CustomWeather, © 2016

See weather overviewHow to use our weather pages